Flag for Japan Weather past 2 weeks in Sapporo, Japan

Now
65 °F

Overcast.


Feels Like: 65 °F
Forecast: 62 / 75 °F
Wind: 2 mph from Southeast

Location: Sapporo

Current Time: Aug 28, 2015 at 4:26:13 AM

Latest Report: Aug 28, 2015 at 3:00 AM


Visibility: 9 mi

Pressure: 29.98 "Hg

Humidity: 73%

Dew point: 56 °F

Location of SapporoLocation

Historic Weather in Sapporo — Graph

°F

Sapporo temperature yesterday

Maximum temperature yesterday: 72 °F (at 2:00 PM)
Minimum temperature yesterday: 65 °F (at 10:00 AM)
Average temperature yesterday: 68 °F

Past Weeks' High & Low Weather Summary

 TemperatureHumidityPressure
High82 °F (Aug 14, 2:00 PM)94% (Aug 18, 9:00 PM)30.00 "Hg (Aug 18, 9:00 PM)
Low59 °F (Aug 25, 5:00 AM)32% (Aug 25, 3:00 PM)29.67 "Hg (Aug 13, 3:00 PM)
Average70 °F73%29.84 "Hg
* Reported Aug 13 2:00 AM — Aug 28 2:00 AM, Sapporo, Weather by CustomWeather, © 2015

Note: Actual official high and low records may vary slightly from our data, if they occured in-between our weather recording intervals... More about our weather records

Advertising

Sapporo weather history for previous 24 hours

 ConditionsComfort  
Time TempWeatherWind HumidityBarometerVisibility
2:00 AM
Fri, Aug 28
66 °FMild.2 mph71%29.99 "HgN/A
1:00 AM66 °FMild.5 mph70%29.99 "HgN/A
12:00 AM67 °FMild.5 mph65%29.99 "HgN/A
11:00 PM
Thu, Aug 27
67 °FMild.7 mph71%29.99 "HgN/A
10:00 PM67 °FMild.8 mph79%29.99 "HgN/A
9:00 PM67 °FOvercast.7 mph79%29.99 "Hg9 mi
8:00 PM68 °FMild.8 mph69%29.99 "HgN/A
7:00 PM69 °FMild.8 mph57%29.97 "HgN/A
6:00 PM69 °FOvercast.9 mph60%29.95 "Hg12 mi
5:00 PM70 °FMild.9 mph71%29.95 "HgN/A
4:00 PM71 °FMild.8 mph67%29.94 "HgN/A
3:00 PM71 °FOvercast.12 mph61%29.93 "Hg12 mi
2:00 PM72 °FMild.13 mph59%29.93 "HgN/A
1:00 PM71 °FMild.9 mph67%29.93 "HgN/A
10:00 AM65 °FMild.9 mph86%29.95 "HgN/A
9:00 AM67 °FSprinkles. Overcast.8 mph80%29.93 "Hg12 mi
8:00 AM67 °FMild.8 mph79%29.91 "HgN/A
7:00 AM66 °FMild.10 mph81%29.90 "HgN/A
5:00 AM67 °FMild.10 mph76%29.88 "HgN/A
4:00 AM66 °FMild.10 mph75%29.87 "HgN/A
Weather by CustomWeather, © 2015

See weather overviewHow to use our weather pages